Year,Month,Day,Hour,Minute,Value (Times are PST for temperature in C)
2017,05,26,00,00,17.60
2017,05,26,00,01,17.70
2017,05,26,00,02,17.80
2017,05,26,00,03,17.90
2017,05,26,00,04,17.90
2017,05,26,00,05,17.90
2017,05,26,00,06,17.90
2017,05,26,00,07,17.90
2017,05,26,00,08,17.90
2017,05,26,00,09,17.90
2017,05,26,00,10,18.00
2017,05,26,00,11,18.00
2017,05,26,00,12,18.00
2017,05,26,00,13,18.10
2017,05,26,00,14,18.10
2017,05,26,00,15,18.10
2017,05,26,00,16,18.10
2017,05,26,00,17,18.10
2017,05,26,00,18,18.10
2017,05,26,00,19,18.10
2017,05,26,00,20,18.00
2017,05,26,00,21,18.00
2017,05,26,00,22,17.90
2017,05,26,00,23,17.90
2017,05,26,00,24,17.90
2017,05,26,00,25,17.90
2017,05,26,00,26,17.90
2017,05,26,00,27,17.90
2017,05,26,00,28,17.90
2017,05,26,00,29,17.80
2017,05,26,00,30,17.80
2017,05,26,00,31,17.80
2017,05,26,00,32,17.80
2017,05,26,00,33,17.80
2017,05,26,00,34,17.80
2017,05,26,00,35,17.80
2017,05,26,00,36,17.80
2017,05,26,00,37,17.80
2017,05,26,00,38,17.80
2017,05,26,00,39,17.90
2017,05,26,00,40,17.90
2017,05,26,00,41,17.90
2017,05,26,00,42,17.90
2017,05,26,00,43,17.90
2017,05,26,00,44,17.90
2017,05,26,00,45,17.80
2017,05,26,00,46,17.80
2017,05,26,00,47,17.80
2017,05,26,00,48,17.80
2017,05,26,00,49,17.80
2017,05,26,00,50,17.70
2017,05,26,00,51,17.70
2017,05,26,00,52,17.70
2017,05,26,00,53,17.70
2017,05,26,00,54,17.70
2017,05,26,00,55,17.70
2017,05,26,00,56,17.70
2017,05,26,00,57,17.60
2017,05,26,00,58,17.60
2017,05,26,00,59,17.60
2017,05,26,01,00,17.50
2017,05,26,01,01,17.40
2017,05,26,01,02,17.40
2017,05,26,01,03,17.40
2017,05,26,01,04,17.40
2017,05,26,01,05,17.40
2017,05,26,01,06,17.30
2017,05,26,01,07,17.30
2017,05,26,01,08,17.30
2017,05,26,01,09,17.30
2017,05,26,01,10,17.20
2017,05,26,01,11,17.20
2017,05,26,01,12,17.20
2017,05,26,01,13,17.20
2017,05,26,01,14,17.20
2017,05,26,01,15,17.20
2017,05,26,01,16,17.30
2017,05,26,01,17,17.30
2017,05,26,01,18,17.30
2017,05,26,01,19,17.30
2017,05,26,01,20,17.20
2017,05,26,01,21,17.20
2017,05,26,01,22,17.20
2017,05,26,01,23,17.20
2017,05,26,01,24,17.20
2017,05,26,01,25,17.20
2017,05,26,01,26,17.20
2017,05,26,01,27,17.10
2017,05,26,01,28,17.10
2017,05,26,01,29,17.10
2017,05,26,01,30,17.00
2017,05,26,01,31,17.00
2017,05,26,01,32,16.90
2017,05,26,01,33,16.90
2017,05,26,01,34,16.80
2017,05,26,01,35,16.80
2017,05,26,01,36,16.80
2017,05,26,01,37,16.80
2017,05,26,01,38,16.80
2017,05,26,01,39,16.80
2017,05,26,01,40,16.70
2017,05,26,01,41,16.70
2017,05,26,01,42,16.70
2017,05,26,01,43,16.70
2017,05,26,01,44,16.70
2017,05,26,01,45,16.60
2017,05,26,01,46,16.60
2017,05,26,01,47,16.60
2017,05,26,01,48,16.60
2017,05,26,01,49,16.60
2017,05,26,01,50,16.60
2017,05,26,01,51,16.60
2017,05,26,01,52,16.50
2017,05,26,01,53,16.50
2017,05,26,01,54,16.50
2017,05,26,01,55,16.50
2017,05,26,01,56,16.50
2017,05,26,01,57,16.40
2017,05,26,01,58,16.40
2017,05,26,01,59,16.40
2017,05,26,02,00,16.40
2017,05,26,02,01,16.40
2017,05,26,02,02,16.30
2017,05,26,02,03,16.30
2017,05,26,02,04,16.30
2017,05,26,02,05,16.20
2017,05,26,02,06,16.20
2017,05,26,02,07,16.20
2017,05,26,02,08,16.20
2017,05,26,02,09,16.10
2017,05,26,02,10,16.10
2017,05,26,02,11,16.10
2017,05,26,02,12,16.10
2017,05,26,02,13,16.10
2017,05,26,02,14,16.10
2017,05,26,02,15,16.00
2017,05,26,02,16,16.00
2017,05,26,02,17,16.00
2017,05,26,02,18,15.90
2017,05,26,02,19,15.90
2017,05,26,02,20,15.90
2017,05,26,02,21,15.90
2017,05,26,02,22,15.90
2017,05,26,02,23,15.80
2017,05,26,02,24,15.80
2017,05,26,02,25,15.80
2017,05,26,02,26,15.80
2017,05,26,02,27,15.80
2017,05,26,02,28,15.80
2017,05,26,02,29,15.80
2017,05,26,02,30,15.80
2017,05,26,02,31,15.70
2017,05,26,02,32,15.70
2017,05,26,02,33,15.70
2017,05,26,02,34,15.70
2017,05,26,02,35,15.70
2017,05,26,02,36,15.60
2017,05,26,02,37,15.60
2017,05,26,02,38,15.60
2017,05,26,02,39,15.60
2017,05,26,02,40,15.60
2017,05,26,02,41,15.60
2017,05,26,02,42,15.60
2017,05,26,02,43,15.60
2017,05,26,02,44,15.60
2017,05,26,02,45,15.60
2017,05,26,02,46,15.60
2017,05,26,02,47,15.60
2017,05,26,02,48,15.60
2017,05,26,02,49,15.60
2017,05,26,02,50,15.60
2017,05,26,02,51,15.60
2017,05,26,02,52,15.60
2017,05,26,02,53,15.60
2017,05,26,02,54,15.60
2017,05,26,02,55,15.60
2017,05,26,02,56,15.60
2017,05,26,02,57,15.60
2017,05,26,02,58,15.50
2017,05,26,02,59,15.50
2017,05,26,03,00,15.50
2017,05,26,03,01,15.50
2017,05,26,03,02,15.50
2017,05,26,03,03,15.50
2017,05,26,03,04,15.50
2017,05,26,03,05,15.50
2017,05,26,03,06,15.50
2017,05,26,03,07,15.40
2017,05,26,03,08,15.40
2017,05,26,03,09,15.40
2017,05,26,03,10,15.40
2017,05,26,03,11,15.40
2017,05,26,03,12,15.40
2017,05,26,03,13,15.40
2017,05,26,03,14,15.40
2017,05,26,03,15,15.40
2017,05,26,03,16,15.40
2017,05,26,03,17,15.30
2017,05,26,03,18,15.40
2017,05,26,03,19,15.40
2017,05,26,03,20,15.30
2017,05,26,03,21,15.40
2017,05,26,03,22,15.40
2017,05,26,03,23,15.30
2017,05,26,03,24,15.30
2017,05,26,03,25,15.30
2017,05,26,03,26,15.30
2017,05,26,03,27,15.30
2017,05,26,03,28,15.20
2017,05,26,03,29,15.20
2017,05,26,03,30,15.20
2017,05,26,03,31,15.20
2017,05,26,03,32,15.20
2017,05,26,03,33,15.20
2017,05,26,03,34,15.10
2017,05,26,03,35,15.10
2017,05,26,03,36,15.10
2017,05,26,03,37,15.10
2017,05,26,03,38,15.10
2017,05,26,03,39,15.10
2017,05,26,03,40,15.00
2017,05,26,03,41,15.00
2017,05,26,03,42,15.00
2017,05,26,03,43,15.00
2017,05,26,03,44,15.00
2017,05,26,03,45,15.00
2017,05,26,03,46,15.00
2017,05,26,03,47,15.00
2017,05,26,03,48,15.00
2017,05,26,03,49,15.00
2017,05,26,03,50,15.00
2017,05,26,03,51,15.00
2017,05,26,03,52,15.00
2017,05,26,03,53,15.00
2017,05,26,03,54,15.00
2017,05,26,03,55,15.10
2017,05,26,03,56,15.10
2017,05,26,03,57,15.10
2017,05,26,03,58,15.10
2017,05,26,03,59,15.10
2017,05,26,04,00,15.10
2017,05,26,04,01,15.10
2017,05,26,04,02,15.10
2017,05,26,04,03,15.00
2017,05,26,04,04,15.00
2017,05,26,04,05,14.90
2017,05,26,04,06,14.90
2017,05,26,04,07,14.80
2017,05,26,04,08,14.80
2017,05,26,04,09,14.80
2017,05,26,04,10,14.70
2017,05,26,04,11,14.70
2017,05,26,04,12,14.70
2017,05,26,04,13,14.60
2017,05,26,04,14,14.60
2017,05,26,04,15,14.50
2017,05,26,04,16,14.40
2017,05,26,04,17,14.40
2017,05,26,04,18,14.30
2017,05,26,04,19,14.30
2017,05,26,04,20,14.30
2017,05,26,04,21,14.20
2017,05,26,04,22,14.20
2017,05,26,04,23,14.20
2017,05,26,04,24,14.20
2017,05,26,04,25,14.20
2017,05,26,04,26,14.20
2017,05,26,04,27,14.20
2017,05,26,04,28,14.20
2017,05,26,04,29,14.20
2017,05,26,04,30,14.20
2017,05,26,04,31,14.20
2017,05,26,04,32,14.20
2017,05,26,04,33,14.20
2017,05,26,04,34,14.20
2017,05,26,04,35,14.20
2017,05,26,04,36,14.20
2017,05,26,04,37,14.20
2017,05,26,04,38,14.20
2017,05,26,04,39,14.20
2017,05,26,04,40,14.20
2017,05,26,04,41,14.20
2017,05,26,04,42,14.20
2017,05,26,04,43,14.20
2017,05,26,04,44,14.30
2017,05,26,04,45,14.30
2017,05,26,04,46,14.30
2017,05,26,04,47,14.30
2017,05,26,04,48,14.30
2017,05,26,04,49,14.30
2017,05,26,04,50,14.30
2017,05,26,04,51,14.20
2017,05,26,04,52,14.20
2017,05,26,04,53,14.20
2017,05,26,04,54,14.10
2017,05,26,04,55,14.00
2017,05,26,04,56,13.90
2017,05,26,04,57,13.80
2017,05,26,04,58,13.70
2017,05,26,04,59,13.60
2017,05,26,05,00,13.50
2017,05,26,05,01,13.40
2017,05,26,05,02,13.30
2017,05,26,05,03,13.10
2017,05,26,05,04,13.00
2017,05,26,05,05,13.00
2017,05,26,05,06,12.90
2017,05,26,05,07,12.80
2017,05,26,05,08,12.80
2017,05,26,05,09,12.80
2017,05,26,05,10,12.80
2017,05,26,05,11,12.80
2017,05,26,05,12,12.70
2017,05,26,05,13,12.70
2017,05,26,05,14,12.70
2017,05,26,05,15,12.70
2017,05,26,05,16,12.80
2017,05,26,05,17,12.80
2017,05,26,05,18,12.80
2017,05,26,05,19,12.90
2017,05,26,05,20,12.90
2017,05,26,05,21,13.00
2017,05,26,05,22,13.00
2017,05,26,05,23,13.00
2017,05,26,05,24,13.10
2017,05,26,05,25,13.10
2017,05,26,05,26,13.10
2017,05,26,05,27,13.10
2017,05,26,05,28,13.10
2017,05,26,05,29,13.10
2017,05,26,05,30,13.10
2017,05,26,05,31,13.20
2017,05,26,05,32,13.20
2017,05,26,05,33,13.20
2017,05,26,05,34,13.20
2017,05,26,05,35,13.20
2017,05,26,05,36,13.20
2017,05,26,05,37,13.20
2017,05,26,05,38,13.20
2017,05,26,05,39,13.20
2017,05,26,05,40,13.20
2017,05,26,05,41,13.20
2017,05,26,05,42,13.10
2017,05,26,05,43,13.10
2017,05,26,05,44,13.10
2017,05,26,05,45,13.10
2017,05,26,05,46,13.10
2017,05,26,05,47,13.10
2017,05,26,05,48,13.10
2017,05,26,05,49,13.10
2017,05,26,05,50,13.10
2017,05,26,05,51,13.10
2017,05,26,05,52,13.20
2017,05,26,05,53,13.20
2017,05,26,05,54,13.20
2017,05,26,05,55,13.20
2017,05,26,05,56,13.30
2017,05,26,05,57,13.30
2017,05,26,05,58,13.30
2017,05,26,05,59,13.40
2017,05,26,06,00,13.40
2017,05,26,06,01,13.50
2017,05,26,06,02,13.50
2017,05,26,06,03,13.60
2017,05,26,06,04,13.60
2017,05,26,06,05,13.60
2017,05,26,06,06,13.70
2017,05,26,06,07,13.70
2017,05,26,06,08,13.70
2017,05,26,06,09,13.70
2017,05,26,06,10,13.70
2017,05,26,06,11,13.60
2017,05,26,06,12,13.50
2017,05,26,06,13,13.50
2017,05,26,06,14,13.50
2017,05,26,06,15,13.40
2017,05,26,06,16,13.40
2017,05,26,06,17,13.40
2017,05,26,06,18,13.30
2017,05,26,06,19,13.30
2017,05,26,06,20,13.30
2017,05,26,06,21,13.30
2017,05,26,06,22,13.40
2017,05,26,06,23,13.40
2017,05,26,06,24,13.40
2017,05,26,06,25,13.40
2017,05,26,06,26,13.40
2017,05,26,06,27,13.40
2017,05,26,06,28,13.40
2017,05,26,06,29,13.40
2017,05,26,06,30,13.50
2017,05,26,06,31,13.50
2017,05,26,06,32,13.50
2017,05,26,06,33,13.60
2017,05,26,06,34,13.60
2017,05,26,06,35,13.70
2017,05,26,06,36,13.70
2017,05,26,06,37,13.70
2017,05,26,06,38,13.80
2017,05,26,06,39,13.80
2017,05,26,06,40,13.80
2017,05,26,06,41,13.80
2017,05,26,06,42,13.80
2017,05,26,06,43,13.90
2017,05,26,06,44,13.90
2017,05,26,06,45,13.90
2017,05,26,06,46,13.90
2017,05,26,06,47,14.00
2017,05,26,06,48,14.00
2017,05,26,06,49,14.00
2017,05,26,06,50,14.00
2017,05,26,06,51,14.00
2017,05,26,06,52,14.00
2017,05,26,06,53,14.10
2017,05,26,06,54,14.10
2017,05,26,06,55,14.20
2017,05,26,06,56,14.20
2017,05,26,06,57,14.20
2017,05,26,06,58,14.30
2017,05,26,06,59,14.30
2017,05,26,07,00,14.30
2017,05,26,07,01,14.40
2017,05,26,07,02,14.40
2017,05,26,07,03,14.50
2017,05,26,07,04,14.50
2017,05,26,07,05,14.60
2017,05,26,07,06,14.60
2017,05,26,07,07,14.70
2017,05,26,07,08,14.70
2017,05,26,07,09,14.70
2017,05,26,07,10,14.70
2017,05,26,07,11,14.70
2017,05,26,07,12,14.80
2017,05,26,07,13,14.80
2017,05,26,07,14,14.80
2017,05,26,07,15,14.80
2017,05,26,07,16,14.80
2017,05,26,07,17,14.80
2017,05,26,07,18,14.80
2017,05,26,07,19,14.90
2017,05,26,07,20,14.90
2017,05,26,07,21,14.90
2017,05,26,07,22,14.90
2017,05,26,07,23,14.90
2017,05,26,07,24,15.00
2017,05,26,07,25,15.00
2017,05,26,07,26,15.00
2017,05,26,07,27,15.10
2017,05,26,07,28,15.10
2017,05,26,07,29,15.10
2017,05,26,07,30,15.10
2017,05,26,07,31,15.10
2017,05,26,07,32,15.00
2017,05,26,07,33,15.00
2017,05,26,07,34,15.00
2017,05,26,07,35,15.00
2017,05,26,07,36,15.00
2017,05,26,07,37,15.00
2017,05,26,07,38,15.10
2017,05,26,07,39,15.10
2017,05,26,07,40,15.10
2017,05,26,07,41,15.10
2017,05,26,07,42,15.10
2017,05,26,07,43,15.00
2017,05,26,07,44,15.00
2017,05,26,07,45,15.00
2017,05,26,07,46,15.00
2017,05,26,07,47,15.00
2017,05,26,07,48,15.00
2017,05,26,07,49,15.10
2017,05,26,07,50,15.10
2017,05,26,07,51,15.10
2017,05,26,07,52,15.10
2017,05,26,07,53,15.10
2017,05,26,07,54,15.10
2017,05,26,07,55,15.20
2017,05,26,07,56,15.20
2017,05,26,07,57,15.20
2017,05,26,07,58,15.20
2017,05,26,07,59,15.20
2017,05,26,08,00,15.20
2017,05,26,08,01,15.20
2017,05,26,08,02,15.20
2017,05,26,08,03,15.10
2017,05,26,08,04,15.10
2017,05,26,08,05,15.10
2017,05,26,08,06,15.10
2017,05,26,08,07,15.20
2017,05,26,08,08,15.20
2017,05,26,08,09,15.20
2017,05,26,08,10,15.20
2017,05,26,08,11,15.20
2017,05,26,08,12,15.10
2017,05,26,08,13,15.10
2017,05,26,08,14,15.10
2017,05,26,08,15,15.10
2017,05,26,08,16,15.10
2017,05,26,08,17,15.10
2017,05,26,08,18,15.10
2017,05,26,08,19,15.10
2017,05,26,08,20,15.10
2017,05,26,08,21,15.10
2017,05,26,08,22,15.10
2017,05,26,08,23,15.00
2017,05,26,08,24,15.00
2017,05,26,08,25,15.00
2017,05,26,08,26,14.90
2017,05,26,08,27,14.90
2017,05,26,08,28,14.90
2017,05,26,08,29,14.90
2017,05,26,08,30,14.90
2017,05,26,08,31,14.90
2017,05,26,08,32,14.90
2017,05,26,08,33,14.90
2017,05,26,08,34,14.90
2017,05,26,08,35,15.00
2017,05,26,08,36,15.00
2017,05,26,08,37,15.00
2017,05,26,08,38,15.00
2017,05,26,08,39,14.90
2017,05,26,08,40,14.90
2017,05,26,08,41,14.90
2017,05,26,08,42,14.90
2017,05,26,08,43,14.90
2017,05,26,08,44,14.90
2017,05,26,08,45,14.90
2017,05,26,08,46,14.90
2017,05,26,08,47,14.90
2017,05,26,08,48,14.80
2017,05,26,08,49,14.80
2017,05,26,08,50,14.80
2017,05,26,08,51,14.80
2017,05,26,08,52,14.80
2017,05,26,08,53,14.80
2017,05,26,08,54,14.80
2017,05,26,08,55,14.90
2017,05,26,08,56,14.90
2017,05,26,08,57,14.90
2017,05,26,08,58,15.00
2017,05,26,08,59,15.00
2017,05,26,09,00,15.00
2017,05,26,09,01,15.10
2017,05,26,09,02,15.10
2017,05,26,09,03,15.10
2017,05,26,09,04,15.20
2017,05,26,09,05,15.20
2017,05,26,09,06,15.20
2017,05,26,09,07,15.20
2017,05,26,09,08,15.30
2017,05,26,09,09,15.30
2017,05,26,09,10,15.30
2017,05,26,09,11,15.30
2017,05,26,09,12,15.30
2017,05,26,09,13,15.30
2017,05,26,09,14,15.40
2017,05,26,09,15,15.40
2017,05,26,09,16,15.30
2017,05,26,09,17,15.30
2017,05,26,09,18,15.30
2017,05,26,09,19,15.20
2017,05,26,09,20,15.20
2017,05,26,09,21,15.20
2017,05,26,09,22,15.20
2017,05,26,09,23,15.20
2017,05,26,09,24,15.20
2017,05,26,09,25,15.20
2017,05,26,09,26,15.10
2017,05,26,09,27,15.10
2017,05,26,09,28,15.10
2017,05,26,09,29,15.10
2017,05,26,09,30,15.10
2017,05,26,09,31,15.10
2017,05,26,09,32,15.10
2017,05,26,09,33,15.10
2017,05,26,09,34,15.10
2017,05,26,09,35,15.10
2017,05,26,09,36,15.10
2017,05,26,09,37,15.20
2017,05,26,09,38,15.20
2017,05,26,09,39,15.20
2017,05,26,09,40,15.20
2017,05,26,09,41,15.20
2017,05,26,09,42,15.20
2017,05,26,09,43,15.20
2017,05,26,09,44,15.20
2017,05,26,09,45,15.20
2017,05,26,09,46,15.20
2017,05,26,09,47,15.20
2017,05,26,09,48,15.20
2017,05,26,09,49,15.20
2017,05,26,09,50,15.20
2017,05,26,09,51,15.20
2017,05,26,09,52,15.20
2017,05,26,09,53,15.20
2017,05,26,09,54,15.30
2017,05,26,09,55,15.40
2017,05,26,09,56,15.40
2017,05,26,09,57,15.40
2017,05,26,09,58,15.40
2017,05,26,09,59,15.50
2017,05,26,10,00,15.50
2017,05,26,10,01,15.60
2017,05,26,10,02,15.60
2017,05,26,10,03,15.70
2017,05,26,10,04,15.70
2017,05,26,10,05,15.80
2017,05,26,10,06,15.90
2017,05,26,10,07,15.90
2017,05,26,10,08,15.90
2017,05,26,10,09,15.90
2017,05,26,10,10,16.00
2017,05,26,10,11,16.00
2017,05,26,10,12,16.10
2017,05,26,10,13,16.10
2017,05,26,10,14,16.10
2017,05,26,10,15,16.20
2017,05,26,10,16,16.20
2017,05,26,10,17,16.20
2017,05,26,10,18,16.20
2017,05,26,10,19,16.20
2017,05,26,10,20,16.20
2017,05,26,10,21,16.10
2017,05,26,10,22,16.10
2017,05,26,10,23,16.10
2017,05,26,10,24,16.10
2017,05,26,10,25,16.10
2017,05,26,10,26,16.10
2017,05,26,10,27,16.10
2017,05,26,10,28,16.10
2017,05,26,10,29,16.20
2017,05,26,10,30,16.20
2017,05,26,10,31,16.20
2017,05,26,10,32,16.20
2017,05,26,10,33,16.20
2017,05,26,10,34,16.10
2017,05,26,10,35,16.10
2017,05,26,10,36,16.10
2017,05,26,10,37,16.10
2017,05,26,10,38,16.10
2017,05,26,10,39,16.10
2017,05,26,10,40,16.20
2017,05,26,10,41,16.30
2017,05,26,10,42,16.40
2017,05,26,10,43,16.40
2017,05,26,10,44,16.40
2017,05,26,10,45,16.40
2017,05,26,10,46,16.40
2017,05,26,10,47,16.40
2017,05,26,10,48,16.50
2017,05,26,10,49,16.50
2017,05,26,10,50,16.50
2017,05,26,10,51,16.60
2017,05,26,10,52,16.60
2017,05,26,10,53,16.70
2017,05,26,10,54,16.80
2017,05,26,10,55,16.80
2017,05,26,10,56,16.90
2017,05,26,10,57,17.00
2017,05,26,10,58,17.00
2017,05,26,10,59,17.10
2017,05,26,11,00,17.10
2017,05,26,11,01,17.20
2017,05,26,11,02,17.20
2017,05,26,11,03,17.10
2017,05,26,11,04,17.10
2017,05,26,11,05,17.00
2017,05,26,11,06,17.00
2017,05,26,11,07,17.00
2017,05,26,11,08,17.00
2017,05,26,11,09,17.10
2017,05,26,11,10,17.10
2017,05,26,11,11,17.10
2017,05,26,11,12,17.20
2017,05,26,11,13,17.20
2017,05,26,11,14,17.20
2017,05,26,11,15,17.20
2017,05,26,11,16,17.20
2017,05,26,11,17,17.20
2017,05,26,11,18,17.30
2017,05,26,11,19,17.30
2017,05,26,11,20,17.30
2017,05,26,11,21,17.30
2017,05,26,11,22,17.30
2017,05,26,11,23,17.20
2017,05,26,11,24,17.20
2017,05,26,11,25,17.20
2017,05,26,11,26,17.30
2017,05,26,11,27,17.30
2017,05,26,11,28,17.20
2017,05,26,11,29,17.20
2017,05,26,11,30,17.20
2017,05,26,11,31,17.20
2017,05,26,11,32,17.10
2017,05,26,11,33,17.10
2017,05,26,11,34,17.00
2017,05,26,11,35,17.00
2017,05,26,11,36,17.00
2017,05,26,11,37,17.10
2017,05,26,11,38,17.10
2017,05,26,11,39,17.10
2017,05,26,11,40,17.10
2017,05,26,11,41,17.10
2017,05,26,11,42,17.10
2017,05,26,11,43,17.10
2017,05,26,11,44,17.10
2017,05,26,11,45,17.10
2017,05,26,11,46,17.10
2017,05,26,11,47,17.10
2017,05,26,11,48,17.10
2017,05,26,11,49,17.20
2017,05,26,11,50,17.20
2017,05,26,11,51,17.20
2017,05,26,11,52,17.20
2017,05,26,11,53,17.20
2017,05,26,11,54,17.20
2017,05,26,11,55,17.10
2017,05,26,11,56,17.10
2017,05,26,11,57,17.00
2017,05,26,11,58,17.00
2017,05,26,11,59,17.00
2017,05,26,12,00,17.10
2017,05,26,12,01,17.10
2017,05,26,12,02,17.20
2017,05,26,12,03,17.30
2017,05,26,12,04,17.40
2017,05,26,12,05,17.60
2017,05,26,12,06,17.70
2017,05,26,12,07,17.80
2017,05,26,12,08,17.90
2017,05,26,12,09,17.90
2017,05,26,12,10,17.90
2017,05,26,12,11,18.00
2017,05,26,12,12,18.00
2017,05,26,12,13,18.00
2017,05,26,12,14,18.00
2017,05,26,12,15,18.10
2017,05,26,12,16,18.10
2017,05,26,12,17,18.10
2017,05,26,12,18,18.10
2017,05,26,12,19,18.20
2017,05,26,12,20,18.20
2017,05,26,12,21,18.20
2017,05,26,12,22,18.10
2017,05,26,12,23,18.00
2017,05,26,12,24,18.00
2017,05,26,12,25,18.00
2017,05,26,12,26,18.00
2017,05,26,12,27,18.00
2017,05,26,12,28,18.00
2017,05,26,12,29,18.00
2017,05,26,12,30,18.10
2017,05,26,12,31,18.10
2017,05,26,12,32,18.10
2017,05,26,12,33,18.20
2017,05,26,12,34,18.30
2017,05,26,12,35,18.40
2017,05,26,12,36,18.40
2017,05,26,12,37,18.50
2017,05,26,12,38,18.50
2017,05,26,12,39,18.50
2017,05,26,12,40,18.50
2017,05,26,12,41,18.50
2017,05,26,12,42,18.60
2017,05,26,12,43,18.50
2017,05,26,12,44,18.40
2017,05,26,12,45,18.30
2017,05,26,12,46,18.20
2017,05,26,12,47,18.20
2017,05,26,12,48,18.20
2017,05,26,12,49,18.20
2017,05,26,12,50,18.30
2017,05,26,12,51,18.40
2017,05,26,12,52,18.50
2017,05,26,12,53,18.60
2017,05,26,12,54,18.70
2017,05,26,12,55,18.80
2017,05,26,12,56,18.90
2017,05,26,12,57,18.90
2017,05,26,12,58,19.00
2017,05,26,12,59,19.00
2017,05,26,13,00,19.00
2017,05,26,13,01,19.10
2017,05,26,13,02,19.10
2017,05,26,13,03,19.10
2017,05,26,13,04,19.10
2017,05,26,13,05,19.10
2017,05,26,13,06,19.10
2017,05,26,13,07,19.10
2017,05,26,13,08,19.10
2017,05,26,13,09,19.00
2017,05,26,13,10,19.00
2017,05,26,13,11,19.00
2017,05,26,13,12,19.00
2017,05,26,13,13,19.00
2017,05,26,13,14,19.10
2017,05,26,13,15,19.10
2017,05,26,13,16,19.10
2017,05,26,13,17,19.10
2017,05,26,13,18,19.10
2017,05,26,13,19,19.20
2017,05,26,13,20,19.20
2017,05,26,13,21,19.20
2017,05,26,13,22,19.20
2017,05,26,13,23,19.20
2017,05,26,13,24,19.20
2017,05,26,13,25,19.20
2017,05,26,13,26,19.10
2017,05,26,13,27,19.00
2017,05,26,13,28,18.90
2017,05,26,13,29,18.80
2017,05,26,13,30,18.70
2017,05,26,13,31,18.70
2017,05,26,13,32,18.70
2017,05,26,13,33,18.70
2017,05,26,13,34,18.70
2017,05,26,13,35,18.70
2017,05,26,13,36,18.70
2017,05,26,13,37,18.70
2017,05,26,13,38,18.70
2017,05,26,13,39,18.70
2017,05,26,13,40,18.70
2017,05,26,13,41,18.60
2017,05,26,13,42,18.50
2017,05,26,13,43,18.40
2017,05,26,13,44,18.30
2017,05,26,13,45,18.30
2017,05,26,13,46,18.20
2017,05,26,13,47,18.20
2017,05,26,13,48,18.10
2017,05,26,13,49,18.10
2017,05,26,13,50,18.10
2017,05,26,13,51,18.20
2017,05,26,13,52,18.20
2017,05,26,13,53,18.30
2017,05,26,13,54,18.30
2017,05,26,13,55,18.30
2017,05,26,13,56,18.30
2017,05,26,13,57,18.30
2017,05,26,13,58,18.30
2017,05,26,13,59,18.30
2017,05,26,14,00,18.40
2017,05,26,14,01,18.40
2017,05,26,14,02,18.50
2017,05,26,14,03,18.50
2017,05,26,14,04,18.50
2017,05,26,14,05,18.50
2017,05,26,14,06,18.60
2017,05,26,14,07,18.70
2017,05,26,14,08,18.70
2017,05,26,14,09,18.80
2017,05,26,14,10,18.80
2017,05,26,14,11,18.80
2017,05,26,14,12,18.70
2017,05,26,14,13,18.70
2017,05,26,14,14,18.70
2017,05,26,14,15,18.70
2017,05,26,14,16,18.80
2017,05,26,14,17,18.80
2017,05,26,14,18,18.80
2017,05,26,14,19,18.80
2017,05,26,14,20,18.80
2017,05,26,14,21,18.70
2017,05,26,14,22,18.70
2017,05,26,14,23,18.80
2017,05,26,14,24,18.90
2017,05,26,14,25,18.90
2017,05,26,14,26,19.00
2017,05,26,14,27,19.00
2017,05,26,14,28,19.00
2017,05,26,14,29,19.10
2017,05,26,14,30,19.10
2017,05,26,14,31,19.20
2017,05,26,14,32,19.20
2017,05,26,14,33,19.20
2017,05,26,14,34,19.20
2017,05,26,14,35,19.20
2017,05,26,14,36,19.20
2017,05,26,14,37,19.20
2017,05,26,14,38,19.20
2017,05,26,14,39,19.20
2017,05,26,14,40,19.20
2017,05,26,14,41,19.20
2017,05,26,14,42,19.30
2017,05,26,14,43,19.30
2017,05,26,14,44,19.30
2017,05,26,14,45,19.20
2017,05,26,14,46,19.10
2017,05,26,14,47,19.10
2017,05,26,14,48,19.10
2017,05,26,14,49,19.00
2017,05,26,14,50,19.00
2017,05,26,14,51,18.90
2017,05,26,14,52,19.00
2017,05,26,14,53,19.00
2017,05,26,14,54,19.10
2017,05,26,14,55,19.10
2017,05,26,14,56,19.10
2017,05,26,14,57,19.20
2017,05,26,14,58,19.20
2017,05,26,14,59,19.10
2017,05,26,15,00,19.10
2017,05,26,15,01,19.10
2017,05,26,15,02,19.10
2017,05,26,15,03,19.20
2017,05,26,15,04,19.10
2017,05,26,15,05,19.10
2017,05,26,15,06,19.10
2017,05,26,15,07,19.10
2017,05,26,15,08,19.10
2017,05,26,15,09,19.10
2017,05,26,15,10,19.10
2017,05,26,15,11,19.20
2017,05,26,15,12,19.30
2017,05,26,15,13,19.30
2017,05,26,15,14,19.30
2017,05,26,15,15,19.30
2017,05,26,15,16,19.30
2017,05,26,15,17,19.30
2017,05,26,15,18,19.30
2017,05,26,15,19,19.30
2017,05,26,15,20,19.40
2017,05,26,15,21,19.40
2017,05,26,15,22,19.40
2017,05,26,15,23,19.50
2017,05,26,15,24,19.50
2017,05,26,15,25,19.60
2017,05,26,15,26,19.60
2017,05,26,15,27,19.70
2017,05,26,15,28,19.70
2017,05,26,15,29,19.80
2017,05,26,15,30,19.80
2017,05,26,15,31,19.90
2017,05,26,15,32,20.00
2017,05,26,15,33,20.00
2017,05,26,15,34,20.20
2017,05,26,15,35,20.20
2017,05,26,15,36,20.30
2017,05,26,15,37,20.30
2017,05,26,15,38,20.20
2017,05,26,15,39,20.10
2017,05,26,15,40,20.00
2017,05,26,15,41,19.90
2017,05,26,15,42,19.80
2017,05,26,15,43,19.80
2017,05,26,15,44,19.70
2017,05,26,15,45,19.70
2017,05,26,15,46,19.70
2017,05,26,15,47,19.70
2017,05,26,15,48,19.80
2017,05,26,15,49,19.80
2017,05,26,15,50,19.70
2017,05,26,15,51,19.80
2017,05,26,15,52,19.80
2017,05,26,15,53,19.90
2017,05,26,15,54,19.90
2017,05,26,15,55,20.00
2017,05,26,15,56,20.00
2017,05,26,15,57,20.00
2017,05,26,15,58,20.00
2017,05,26,15,59,20.00
2017,05,26,16,00,20.00
2017,05,26,16,01,19.90
2017,05,26,16,02,19.80
2017,05,26,16,03,19.70
2017,05,26,16,04,19.70
2017,05,26,16,05,19.70
2017,05,26,16,06,19.70
2017,05,26,16,07,19.80
2017,05,26,16,08,19.90
2017,05,26,16,09,20.10
2017,05,26,16,10,20.20
2017,05,26,16,11,20.30
2017,05,26,16,12,20.40
2017,05,26,16,13,20.40
2017,05,26,16,14,20.40
2017,05,26,16,15,20.40
2017,05,26,16,16,20.40
2017,05,26,16,17,20.40
2017,05,26,16,18,20.30
2017,05,26,16,19,20.40
2017,05,26,16,20,20.40
2017,05,26,16,21,20.50
2017,05,26,16,22,20.50
2017,05,26,16,23,20.50
2017,05,26,16,24,20.50
2017,05,26,16,25,20.50
2017,05,26,16,26,20.50
2017,05,26,16,27,20.50
2017,05,26,16,28,20.50
2017,05,26,16,29,20.60
2017,05,26,16,30,20.70
2017,05,26,16,31,20.80
2017,05,26,16,32,21.00
2017,05,26,16,33,21.10
2017,05,26,16,34,21.20
2017,05,26,16,35,21.10
2017,05,26,16,36,21.20
2017,05,26,16,37,21.20
2017,05,26,16,38,21.20
2017,05,26,16,39,21.20
2017,05,26,16,40,21.20
2017,05,26,16,41,21.10
2017,05,26,16,42,21.00
2017,05,26,16,43,20.80
2017,05,26,16,44,20.70
2017,05,26,16,45,20.60
2017,05,26,16,46,20.50
2017,05,26,16,47,20.40
2017,05,26,16,48,20.30
2017,05,26,16,49,20.30
2017,05,26,16,50,20.20
2017,05,26,16,51,20.20
2017,05,26,16,52,20.20
2017,05,26,16,53,20.20
2017,05,26,16,54,20.20
2017,05,26,16,55,20.20
2017,05,26,16,56,20.20
2017,05,26,16,57,20.20
2017,05,26,16,58,20.20
2017,05,26,16,59,20.20
2017,05,26,17,00,20.20
2017,05,26,17,01,20.20
2017,05,26,17,02,20.20
2017,05,26,17,03,20.10
2017,05,26,17,04,20.20
2017,05,26,17,05,20.20
2017,05,26,17,06,20.20
2017,05,26,17,07,20.20
2017,05,26,17,08,20.30
2017,05,26,17,09,20.30
2017,05,26,17,10,20.30
2017,05,26,17,11,20.40
2017,05,26,17,12,20.40
2017,05,26,17,13,20.50
2017,05,26,17,14,20.60
2017,05,26,17,15,20.80
2017,05,26,17,16,20.80
2017,05,26,17,17,20.90
2017,05,26,17,18,21.00
2017,05,26,17,19,21.10